Dayton Wright, OH

10:41 PM EDT on June 28, 2017 (GMT -0400)
Dayton-Wright Brothers

Weather History for KMGY - October, 2013

Change the Weather History Date:

Tuesday, October 8, 2013

  Actual Average (KFFO) Record (KFFO)
Temperature  
Mean Temperature 54 °F -  
Max Temperature 66 °F 66 °F 89 °F (2007)
Min Temperature 41 °F 43 °F 31 °F (2012)
Degree Days  
Heating Degree Days 12    
Growing Degree Days 4 (Base 50)    
Moisture  
Dew Point 43 °F    
Average Humidity 73    
Maximum Humidity 93    
Minimum Humidity 40    
Precipitation  
Precipitation 0.01 in - - ()
Sea Level Pressure  
Sea Level Pressure 30.23 in    
Wind  
Wind Speed 3 mph (ENE)    
Max Wind Speed 13 mph    
Max Gust Speed -    
Visibility 8 miles    
Events      
Averages and records for this station are not official NWS values.
T = Trace of Precipitation, MM = Missing Value Source: NWS Daily Summary

Daily Weather History Graph

Daily Weather History Graph

Search for Another Location

Airport or City:

Trip Planner

Search our weather history database for the weather conditions in past years. The results will help you decide how hot, cold, wet, or windy it might be!

Date:

Astronomy

Oct. 08, 2013 Rise Set
Actual Time 7:40 AM EDT 7:07 PM EDT
Civil Twilight 7:13 AM EDT 7:34 PM EDT
Nautical Twilight 6:41 AM EDT 8:05 PM EDT
Astronomical Twilight 6:10 AM EDT 8:37 PM EDT
Moon 11:32 AM EDT (10/8) 9:44 PM EDT (10/8)
Length of Visible Light 12h 21m
Length of Day
11h 27m
Waxing Crescent, 16% of the Moon is Illuminated
Oct 8
Waxing Crescent
Oct 11
First Quarter
Oct 18
Full
Oct 26
Last Quarter
Nov 3
New

Hourly Weather History & Observations

Time (EDT) Temp. Windchill Dew Point Humidity Pressure Visibility Wind Dir Wind Speed Gust Speed Precip Events Conditions
12:53 AM 46.9 °F - 45.0 °F 93% 30.17 in 10.0 mi Calm Calm - N/A   Clear
1:53 AM 44.1 °F - 42.1 °F 93% 30.19 in 10.0 mi Calm Calm - N/A   Clear
2:53 AM 44.1 °F - 42.1 °F 93% 30.19 in 10.0 mi Calm Calm - N/A   Clear
3:53 AM 45.0 °F - 43.0 °F 93% 30.19 in 10.0 mi Calm Calm - N/A   Clear
4:53 AM 43.0 °F - 41.0 °F 93% 30.20 in 10.0 mi Calm Calm - N/A   Clear
5:53 AM 42.1 °F 40.2 °F 39.9 °F 92% 30.21 in 10.0 mi NE 3.5 mph - N/A   Clear
6:53 AM 43.0 °F 40.3 °F 41.0 °F 93% 30.23 in 7.0 mi ENE 4.6 mph - N/A   Clear
7:27 AM 42.8 °F 41.1 °F 41.0 °F 93% 30.24 in 2.5 mi ENE 3.5 mph - N/A   Clear
7:49 AM 42.8 °F 40.1 °F 39.2 °F 87% 30.24 in 1.8 mi ENE 4.6 mph - N/A   Clear
7:53 AM 41.0 °F 37.1 °F 39.0 °F 93% 30.26 in 1.8 mi ENE 5.8 mph - N/A   Clear
8:01 AM 42.8 °F 38.6 °F 39.2 °F 87% 30.24 in 2.5 mi NE 6.9 mph - N/A   Clear
8:10 AM 42.8 °F 38.6 °F 41.0 °F 93% 30.25 in 3.0 mi NE 6.9 mph - N/A   Clear
8:53 AM 48.0 °F - 45.0 °F 89% 30.27 in 5.0 mi ENE 3.5 mph - N/A   Clear
9:53 AM 54.0 °F - 46.9 °F 77% 30.29 in 10.0 mi ENE 4.6 mph - N/A   Clear
10:53 AM 57.9 °F - 46.0 °F 65% 30.29 in 10.0 mi ENE 10.4 mph - N/A   Clear
11:53 AM 60.1 °F - 46.0 °F 60% 30.28 in 10.0 mi East 6.9 mph - 0.01 in   Clear
12:53 PM 63.0 °F - 44.1 °F 50% 30.27 in 10.0 mi ESE 12.7 mph - N/A   Clear
1:53 PM 64.0 °F - 42.1 °F 45% 30.25 in 10.0 mi East 8.1 mph - N/A   Clear
2:53 PM 66.0 °F - 44.1 °F 45% 30.24 in 10.0 mi ENE 6.9 mph - N/A   Clear
3:53 PM 66.0 °F - 41.0 °F 40% 30.22 in 10.0 mi East 8.1 mph - N/A   Clear
4:53 PM 66.0 °F - 41.0 °F 40% 30.22 in 10.0 mi ESE 8.1 mph - N/A   Clear
5:53 PM 66.0 °F - 42.1 °F 42% 30.21 in 10.0 mi ENE 5.8 mph - N/A   Clear
6:53 PM 64.0 °F - 42.1 °F 45% 30.22 in 10.0 mi East 3.5 mph - N/A   Clear
7:53 PM 57.0 °F - 45.0 °F 64% 30.22 in 10.0 mi ENE 3.5 mph - N/A   Clear
8:53 PM 55.0 °F - 43.0 °F 64% 30.23 in 10.0 mi ENE 4.6 mph - N/A   Clear
9:53 PM 53.1 °F - 43.0 °F 69% 30.24 in 10.0 mi ENE 4.6 mph - N/A   Clear
10:53 PM 52.0 °F - 43.0 °F 71% 30.24 in 10.0 mi ENE 5.8 mph - N/A   Clear
11:53 PM 51.1 °F - 43.0 °F 74% 30.24 in 10.0 mi ENE 4.6 mph - N/A   Clear